Погода в Вади-Хальфе

Судан     21°47′31″N   31°21′55″E
темп.,
°C
ветер,
м/с
пор.,
м/с
влажн.,
%
обл.,
%
осадки,
мм/ч
давл.,
гПа
погр.,
м
6 марта, сб
сб623:00+17ссв45210 0.0 101938
02:00+15с45270 0.0 101840
05:00+13ссв45470 0.0 101734
08:00+17ссв68400 0.0 1018396
11:00+24ссв78140 0.0 1018753
14:00+28ссв6780 0.0 10141120
17:00+28ссв5890 0.0 1014915
20:00+21ссв45150 0.0 101524
7 марта, вс
вс723:00+19ссз45140 0.0 101639
02:00+17с56150 0.0 101458
05:00+16с56270 0.0 101469
08:00+20ссв610180 0.0 1015388
11:00+28ссв7870 0.0 1015855
14:00+32ссв7840 0.0 10111417
17:00+31ссв5740 0.0 10101153
20:00+22с4570 0.0 101124
8 марта, пн
пн823:00+20с67100 0.0 101286
02:00+18с56110 0.0 101173
05:00+16с56160 0.0 101178
08:00+20ссв68120 0.0 1013348
11:00+29ссв6770 0.0 1013787
14:00+32ссв8950 0.0 10101325
17:00+31св5750 0.0 1009809
20:00+24ссв4590 0.0 101124
9 марта, вт
вт923:00+21с45110 0.0 101233
02:00+18ссв45170 0.0 101130
05:00+16с45200 0.0 101227
08:00+21св46170 0.0 1013308
11:00+30св67110 0.0 10131071
14:00+34ссв6670 0.0 10091643
17:00+32ссв7860 0.0 1009739
20:00+25ссв4690 0.0 101027
10 марта, ср
ср1023:00+23ссв34110 0.0 101123
02:00+19св23140 0.0 101023
05:00+17с23180 0.0 101023
08:00+25ссв34150 0.0 1012196
11:00+32ссв45120 0.0 1012862
14:00+35ссв6670 0.0 10081335
17:00+34св5690 0.0 1007804
20:00+26ссв35160 0.0 100924